Weather Roundup
Issued by NWS

Home | Current Version | Previous Version | Graphics & Text | Print | Product List | Glossary Off
Versions: 1 2 3 4 5 6 7 8 9 10 11 12 13 14 15 16 17 18 19 20 21 22 23 24 25 26 27 28 29 30 31 32 33 34 35 36 37 38 39 40 41 42 43 44 45 46 47 48 49 50

000
NZUS93 KARX 291910
HRRWXR

CURRENT HOURLY OBSERVATIONS ACROSS
MUCH OF THE UPPER MISSISSIPPI VALLEY
NATIONAL WEATHER SERVICE LA CROSSE WI
200 PM CDT MON JUN 29 2015


...SOUTHEAST MINNESOTA...


CITY           SKY/WX    TMP DP  RH WIND       PRES   REMARKS
ROCHESTER      PTSUNNY   80  64  58 NW15      29.84F
ROCHESTER/MAYO FAIR      78  62  58 W13       29.83F
WINONA         SUNNY     79  64  61 NE5       29.81F
AUSTIN         PTSUNNY   79  64  61 NW9G17    29.85S
ALBERT LEA     SUNNY     79  63  57 NW7       29.86F
DODGE CENTER   MOSUNNY   79  63  57 NW14G20   29.85F
PRESTON        MOSUNNY   77  62  59 NW9       29.84F
OWATONNA       SUNNY     81  63  54 NW10      29.84F
FARIBAULT      MOSUNNY   81  64  57 NW8       29.84F
$$

...ELSEWHERE IN MINNESOTA...


CITY           SKY/WX    TMP DP  RH WIND       PRES   REMARKS
MINNEAPOLIS    MOSUNNY   83  63  50 W12       29.80F
INTNL FALLS    PTSUNNY   75  59  57 N12       29.81R
DULUTH         PTSUNNY   72  61  68 N3        29.78S
RED WING       SUNNY     82  61  47 NW10      29.79S
REDWOOD FALLS  SUNNY     79  65  62 NW9       29.87F
MANKATO        MOSUNNY   81  64  57 W9        29.85F
WORTHINGTON    SUNNY     79  57  47 NW15      29.92F
FAIRMONT       SUNNY     81  59  47 NW14G20   29.88F
$$

...SOUTHWEST WISCONSIN...


CITY           SKY/WX    TMP DP  RH WIND       PRES   REMARKS
LA CROSSE      SUNNY     80  63  55 NW7       29.80F
PRAIRIE DU CHI SUNNY     78  61  55 NW8       29.81F
BOSCOBEL       PTSUNNY   77  63  61 NW5       29.81F
LONE ROCK      PTSUNNY   75  62  64 W7        29.81F
PLATTEVILLE    PTSUNNY   76  63  63 W7        29.82F
FORT MC COY    MOSUNNY   78  58  50 W3        29.81F
CAMP DOUGLAS   MOSUNNY   75  70  83 NW8       29.81F
VIROQUA        MOCLDY    76  62  61 N7        29.83F
WIS DELLS      MOSUNNY   77  56  49 NW9       29.81S
$$

...ELSEWHERE IN WISCONSIN...


CITY           SKY/WX    TMP DP  RH WIND       PRES   REMARKS
MILWAUKEE      PTSUNNY   73  60  63 SE6       29.82S
MADISON        PTSUNNY   74  61  63 CALM      29.80S
GREEN BAY      CLOUDY    77  59  53 S8        29.78F
EAU CLAIRE     PTSUNNY   77  65  66 NW5       29.78F
BLACK RVR FLS  MOCLDY    77  61  57 CALM      29.80F
MEDFORD        PTSUNNY   74  60  60 W3        29.80S
WAUSAU         SUNNY     79  56  45 W8        29.77F
WIS RAPIDS     PTSUNNY   77  58  51 MISG      29.81F
MARSHFIELD     NOT AVBL
RICE LAKE      PTSUNNY   80  60  50 W6        29.79F
$$

...NORTHEAST IOWA...


CITY           SKY/WX    TMP DP  RH WIND       PRES   REMARKS
DECORAH          N/A    N/A N/A N/A MISG        N/A
MASON CITY     MOSUNNY   81  63  54 NW16      29.88F
CHARLES CITY   MOSUNNY   79  66  65 NW9G16    29.86F
OELWEIN        MOSUNNY   79  64  61 NW12G18   29.85F
$$

...ELSEWHERE IN IOWA...


CITY           SKY/WX    TMP DP  RH WIND       PRES   REMARKS
DES MOINES     CLOUDY    83  63  50 N12       29.89S
IOWA CITY      MOSUNNY   80  65  59 W9        29.86S
FORT DODGE     MOSUNNY   79  63  57 NW8       29.91F
$$

...NORTHERN ILLINOIS...


CITY           SKY/WX    TMP DP  RH WIND       PRES   REMARKS
CHICAGO-OHARE  PTSUNNY   75  62  64 E9        29.80S
CHICAGO-MIDWAY PTSUNNY   73  64  73 VRB6      29.80F
MOLINE         MOSUNNY   76  64  66 W8        29.84F
ROCKFORD       PTSUNNY   75  62  64 W7        29.82S THUNDER
PEORIA         PTSUNNY   78  63  59 NW7       29.85S
$$

NOTE: "FAIR" INDICATES FEW OR NO CLOUDS BELOW 12,000 FEET WITH NO
SIGNIFICANT WEATHER AND/OR OBSTRUCTIONS TO VISIBILITY. WIND
SPEEDS ARE IN MILES-PER-HOUR.



USA.gov is the U.S. government's official web portal to all federal, state and local government web resources and services.